Location: Lansac
(43.2236°N, 0.1635°E)
Time: 16:59:41
(UTC+00:00)

Daily predictions for brighter satellites

Satellite Brightness Start Highest point End
(mag) Time Altitude Azimuth Time Altitude Azimuth Time Altitude Azimuth
Cosmos 773 Rocket 4.1 19:42:35 10° NNW 19:47:55 85° ENE 19:53:11 10° SSE
Resurs 1-3 4.0 19:45:24 10° SE 19:49:36 47° ENE 19:53:49 10° N
ERS-2 2.4 19:45:58 10° N 19:49:36 75° WNW 19:53:12 10° SSW
GEOS 3 Rocket 4.4 19:46:02 10° SSE 19:51:17 54° WSW 19:56:33 10° NW
CZ-4 R/B 4.4 19:53:44 10° WSW 19:55:42 13° W 19:57:41 10° WNW
Cosmos 1933 4.3 19:51:47 10° SSW 19:55:42 51° W 19:59:38 10° N
OBJECT-B 1.1 19:53:12 10° S 19:56:26 71° W 19:59:41 10° NNW
USA 308 2.9 19:53:35 10° NW 19:57:54 88° NE 20:02:11 10° SE
Akebono 4.0 19:59:17 10° N 20:01:21 56° ENE 20:03:40 10° SSE
SJ-6B 3.2 19:57:28 10° S 20:01:24 69° WSW 20:05:26 10° NNW
USA 186 3.0 19:59:37 10° SSW 20:01:41 27° W 20:03:42 10° NW
Helios 1A Rocket 4.4 19:58:52 10° SSW 20:02:45 38° W 20:06:39 10° NNW
Cosmos 1538 Rocket 4.2 19:59:10 10° NNW 20:04:29 63° ENE 20:09:43 10° SSE
ISS -3.8 20:02:45 10° SW 20:06:05 71° SE 20:09:26 10° ENE
OAO 3 Rocket 4.1 20:06:27 10° SW 20:10:24 28° S 20:14:00 12° ESE
Cosmos 1709 Rocket 4.1 20:05:38 10° N 20:11:46 83° W 20:17:53 10° S
Cosmos 2082 Rocket 2.5 20:11:19 10° NNW 20:16:51 54° ENE 20:21:45 13° SE
SPOT 3 Rocket 3.8 20:12:41 10° SE 20:17:40 52° ENE 20:22:39 10° N
Cosmos 1943 Rocket 3.5 20:14:37 10° SE 20:18:30 20° E 20:22:28 10° NE
Cosmos 1461 4.4 20:16:52 10° SSE 20:20:22 21° ESE 20:23:51 10° ENE
CZ-4C R/B 3.4 20:14:07 10° NW 20:21:30 65° WSW 20:29:52 10° SSE
Cosmos 2074 Rocket 4.4 20:16:54 10° N 20:22:59 47° ENE 20:28:25 13° SSE
Cosmos 2184 Rocket 4.4 20:19:23 10° N 20:25:21 47° ENE 20:30:30 14° SSE
Cosmos 1437 4.4 20:24:37 10° SW 20:27:11 31° WNW 20:29:46 10° N
Cosmos 44 4.3 20:24:41 10° NNW 20:29:49 42° NE 20:33:48 15° ESE
BREEZE-M R/B 4.3 20:28:09 10° WNW 20:30:10 20° N 20:32:08 10° NE
deb Kosmos-1763 4.3 20:26:53 10° NNW 20:30:23 62° WSW 20:33:32 12° S
NOSS 3-4 (A) 3.9 20:25:43 10° NW 20:32:48 85° NE 20:39:25 16° SE
NOSS 3-4 (C) 3.9 20:25:50 10° NW 20:32:55 85° NE 20:39:31 16° SE
Ariane Rocket 3.5 20:28:32 10° S 20:33:30 59° W 20:38:31 10° NNW
Iridium 4 Rocket 4.1 20:28:48 11° SSE 20:34:18 51° E 20:39:58 10° NNE
USA 305 3.6 20:30:47 10° WNW 20:34:50 44° SW 20:37:52 16° SSE
Cosmos 1271 Rocket 2.8 20:31:02 10° S 20:34:59 63° E 20:38:57 10° NNE
Cosmos 1515 Rocket 3.6 20:31:33 10° S 20:35:57 84° W 20:40:20 10° N
Meteor 1-10 Rocket 4.2 20:30:30 10° S 20:36:01 65° E 20:41:40 10° NNE
Cosmos 2278 Rocket 3.1 20:34:12 10° SW 20:39:42 53° WNW 20:45:14 10° NNE
COSMOS 2406 3.9 20:36:19 10° NW 20:41:48 51° WSW 20:47:16 10° S
Cosmos 1536 3.8 20:39:02 10° NNE 20:42:38 30° ENE 20:44:24 21° ESE
Cosmos 990 Rocket 4.1 20:37:47 10° S 20:42:50 53° ESE 20:47:57 10° NNE
Cosmos 2369 Rocket 3.6 20:42:46 16° ESE 20:43:46 17° E 20:47:14 10° ENE
Cosmos 2228 Rocket 3.4 20:40:35 15° SSE 20:44:00 49° E 20:48:20 10° NNE
Cosmos 1869 Rocket 4.2 20:40:13 10° N 20:44:17 38° ENE 20:46:32 22° SE
ATLAS 2AS CENTAUR R/B 3.0 20:38:47 10° NNW 20:46:07 64° NE 20:51:06 19° SE
Cosmos 158 Rocket 3.8 20:41:51 10° NNW 20:46:47 89° WSW 20:50:27 18° SSE
Resurs 01 Rocket 1.9 20:44:55 13° S 20:48:54 70° WSW 20:53:20 10° NNW
Cosmos 1898 Rocket 3.8 20:43:59 10° S 20:49:02 48° ESE 20:54:10 10° NNE
Cosmos 1666 2.7 20:46:00 10° N 20:49:44 79° W 20:52:23 18° S
USA 306 4.2 20:50:44 10° WNW 20:54:30 31° SW 20:56:52 18° S
Tianhe-1 1.0 20:52:34 10° WSW 20:55:39 59° S 20:56:47 34° ESE
Cosmos 923 Rocket 4.0 20:51:34 10° NNW 20:56:53 79° ENE 21:00:16 23° SSE
Terra 3.2 20:55:27 18° ESE 20:57:35 25° ENE 21:01:27 10° NNE
Meteor 2-12 Rocket 4.5 20:52:25 10° N 20:58:28 66° E 21:02:32 21° SSE
Cosmos 1812 4.2 20:54:57 10° SW 20:58:32 37° WNW 21:02:10 10° N
CARTOSAT-1 4.0 20:58:59 27° SE 21:01:01 48° ENE 21:05:10 10° N
SL-24 R/B - RUBIN 2 3.9 20:58:12 10° NNW 21:03:36 70° NE 21:06:09 28° SE
Cosmos 1900 4.3 20:59:25 10° SSW 21:04:32 88° SE 21:09:37 10° NNE
Cosmos 1818 4.1 20:59:14 10° NNW 21:04:35 50° NE 21:07:40 24° ESE
Cosmos 2084 Rocket 3.8 21:02:20 10° NNW 21:06:35 57° NE 21:08:37 29° ESE
DNEPR-1 R/B 4.1 21:00:29 10° SSW 21:06:40 70° ESE 21:11:45 10° NE
Cosmos 1833 Rocket 4.2 21:02:31 10° NW 21:07:26 31° WSW 21:12:18 10° SSW
IGS 5A 4.3 21:04:34 15° S 21:07:48 46° W 21:11:48 10° NNW
JB-3 4.4 21:04:55 10° NNE 21:08:41 53° E 21:10:00 34° SSE
CZ-2C R/B 3.1 21:07:19 10° SW 21:08:33 15° SSW 21:08:33 15° SSW
SJ 16-02 3.3 21:07:57 10° SW 21:11:51 30° WNW 21:15:46 10° N
CZ-2C R/B 4.4 21:17:35 10° N 21:22:02 55° WNW 21:26:32 10° SSW
Meteor 1-27 Rocket 3.9 21:17:45 13° SSW 21:23:05 84° W 21:29:04 10° N
Cosmos 2341 Rocket 4.5 21:17:25 10° N 21:23:36 47° ENE 21:26:26 29° SE
Cosmos 1743 3.1 21:20:38 10° N 21:24:24 48° E 21:25:03 43° ESE
Milstar 3 4.3 21:12:35 10° WSW 21:26:57 38° S 21:31:31 26° SE
Cosmos 1733 Rocket 3.8 21:23:59 10° N 21:28:00 36° ENE 21:28:47 33° E
ERBS 2.5 21:25:20 10° NW 21:28:36 58° NE 21:29:01 52° ENE
SL-24 DEB 4.3 21:29:48 40° SE 21:31:16 63° E 21:35:51 10° N
ERS-1 Rocket 2.9 21:29:16 36° SSE 21:31:19 75° ENE 21:36:21 10° N
SPOT 5 3.0 21:30:45 35° SSE 21:32:59 76° ENE 21:38:20 10° N
ARIANE 5 R/B 2.7 21:33:19 36° S 21:34:59 69° WSW 21:39:20 10° NNW
Cosmos 2112 Rocket 4.1 21:29:54 10° NNW 21:35:16 75° WSW 21:37:35 35° S
USA 245 4.1 21:37:23 24° W 21:37:23 24° W 21:39:09 10° NW
SL-8 Rocket 4.4 21:33:19 10° N 21:39:27 49° ENE 21:41:47 34° SE
Cosmos 1238 Rocket 3.8 21:34:27 10° N 21:39:54 48° ENE 21:41:08 39° ESE
SPOT 1/Viking Rocket 4.4 21:37:09 21° SSW 21:40:17 45° W 21:45:16 10° NNW
Spot 2 Rocket 3.8 21:38:05 29° S 21:40:32 60° WSW 21:45:33 10° NNW
Cosmos 1937 Rocket 3.5 21:38:08 18° SSW 21:41:56 81° WNW 21:47:09 10° NNE
ISS -1.5 21:40:13 10° WNW 21:43:08 27° NNW 21:46:05 10° NE
Cosmos 2297 4.2 21:40:03 10° SW 21:45:41 61° WNW 21:51:19 10° NNE
Gbstr 26 Del rocket 4.1 21:42:53 10° WNW 21:50:31 87° SW 21:53:23 37° SE
Cosmos 1340 Rocket 3.3 21:49:25 10° NNW 21:53:24 55° W 21:54:15 45° SW
Okean 1 3.1 21:55:06 74° SE 21:55:19 77° E 21:59:18 10° N
Cosmos 1515 3.5 21:56:48 75° SW 21:57:03 82° W 22:00:51 10° N
Cosmos 1867 3.5 21:56:30 43° S 21:58:11 64° ESE 22:03:37 10° NE
H-2A R/B 3.3 21:54:29 10° NNE 21:58:40 86° ESE 21:59:11 68° S
Cosmos 1461 4.0 21:54:32 10° SW 21:59:07 51° NW 22:03:39 10° NNE
Lacrosse 5 3.8 22:02:10 15° E 22:02:10 15° E 22:03:20 10° ENE
Cosmos 2082 Rocket 4.0 21:56:14 10° NW 22:00:30 22° W 22:03:37 14° SW
Cosmos 1943 Rocket 2.6 21:56:11 10° SW 22:01:44 60° WNW 22:07:17 10° NNE
Okean 1-7 4.4 22:08:56 26° ENE 22:08:56 26° ENE 22:11:53 10° NNE
Cosmos 1656 Rocket 3.7 22:08:33 51° SE 22:09:06 53° ESE 22:14:29 10° NNE
ATLAS CENTAUR R/B 2.4 22:11:28 31° NE 22:11:28 31° NE 22:13:39 10° NE
Cosmos 1862 Rocket 3.5 22:14:36 68° SW 22:15:03 77° W 22:19:24 10° N
SL-27 R/B 4.3 22:13:26 10° N 22:15:31 22° NE 22:15:31 22° NE
Cosmos 372 Rocket 4.2 22:18:24 36° SW 22:20:26 66° WNW 22:25:32 10° NNE
Cosmos 1607 3.9 22:22:46 29° SSW 22:26:22 89° WNW 22:32:55 10° NE
Cosmos 2369 Rocket 2.3 22:24:29 32° SW 22:27:07 71° WNW 22:32:47 10° NNE
BREEZE-M DEB (TANK) 4.4 22:29:20 10° WNW 22:29:33 12° WNW 22:29:33 12° WNW
Terra 2.7 22:34:20 35° WSW 22:35:08 37° W 22:39:34 10° NNW
Cosmos 44 Rocket 4.2 22:30:25 10° NNW 22:35:24 43° NE 22:36:33 37° E
ATLAS 2AS CENTAUR R/B 3.9 22:30:35 10° NW 22:36:28 28° WSW 22:38:33 24° SW
Cosmos 2298 Rocket 3.8 22:36:27 71° SSE 22:36:57 79° ESE 22:42:16 10° NNE
Cosmos 1975 3.2 22:33:48 10° NNW 22:37:19 62° NW 22:37:19 62° NW
Cosmos 494 Rocket 4.2 22:35:04 10° NNW 22:40:10 57° ENE 22:40:39 54° E
Cosmos 1821 Rocket 4.3 22:35:11 10° N 22:41:27 53° ENE 22:42:44 46° ESE
Cosmos 2366 rocket 4.1 22:36:47 10° NNW 22:42:57 69° W 22:44:34 50° SSW
Cosmos 2181 Rocket 4.4 22:43:25 35° SW 22:45:49 56° WNW 22:51:50 10° N
Cosmos 724 4.3 22:45:27 60° SE 22:45:58 62° ESE 22:52:07 10° NE
Gblst 52 Del rocket 4.4 22:41:58 10° WNW 22:48:51 65° SW 22:49:39 60° S
RESURS DK-1 2.9 22:48:18 10° NNW 22:51:42 55° WNW 22:51:42 55° WNW
Okean 3 4.4 22:59:12 41° NE 22:59:12 41° NE 23:02:17 10° NNE
Cosmos 1356 Rocket 4.1 22:56:10 10° N 22:59:46 49° NE 22:59:46 49° NE
Cosmos 2150 Rocket 4.2 23:02:51 56° WSW 23:03:43 66° WNW 23:08:59 10° NNE
ALOS 2 3.2 23:08:32 51° NE 23:08:32 51° NE 23:12:21 10° N
Cosmos 1125 Rocket 3.5 23:07:51 71° WSW 23:08:15 75° WNW 23:13:29 10° NNE
Cosmos 1066 Rocket 4.3 23:09:13 60° ESE 23:09:23 60° E 23:14:54 10° NNE
Meteor 1-12 Rocket 4.1 23:05:55 10° N 23:11:45 80° E 23:12:15 73° SE
Spot 4 4.0 23:17:18 68° W 23:17:18 68° W 23:21:55 10° NNW
Cosmos 1300 Rocket 4.4 23:15:02 10° N 23:18:37 44° NE 23:18:37 44° NE
ISS -1.0 23:18:13 10° NW 23:20:44 19° N 23:22:53 12° NE
Cosmos 2297 Rocket 4.2 23:16:27 10° N 23:20:47 22° NE 23:23:53 14° E
COSMOS 2455 4.1 23:17:02 10° NNW 23:22:31 35° NE 23:25:11 24° E
Meteor 1-15 Rocket 4.4 23:18:39 10° N 23:24:22 63° ENE 23:24:54 60° ESE
Nadezhda 3 Rocket 4.0 23:25:32 61° SW 23:26:34 75° W 23:32:47 10° N
Sich 1 Rocket 4.0 23:34:53 10° N 23:38:42 62° N 23:38:42 62° N
BREEZE-M DEB (TANK) 3.8 23:29:39 10° WNW 23:41:14 69° SW 23:41:14 69° SW
Lacrosse 5 2.2 23:41:16 58° WNW 23:41:52 62° NW 23:46:56 10° NE
Cosmos 1605 Rocket 4.2 23:41:34 10° N 23:47:49 61° E 23:48:50 54° ESE
ATLAS CENTAUR R/B 3.9 23:47:33 12° WNW 23:49:12 15° NW 23:51:29 10° N
Okean 2 Rocket 3.6 23:44:55 10° N 23:48:30 57° N 23:48:30 57° N
SeaSat 1 3.9 23:45:38 10° NE 23:48:47 26° E 23:48:47 26° E
Cosmos 2151 Rocket 4.1 23:47:08 10° N 23:50:56 56° NNE 23:50:56 56° NNE
